Theta_e
303 304 303 303 304 304 304 304 304 305 304 306 309 309 312 318 313 303 302 303 304 309 312 308 307 309 304 301 302 303 305 303 301 302 301 300 301 303 303 301 302 302 300 302 304 302 303 304 301 301 302 300 298 298 297 298 299 298 297 297 296 296 297 297 299 298 297 297 296 295 295 295 296 296 296 297 296 294 295 294 293 293 293 294 293 294 294
303 304 303 304 304 304 304 305 304 303 304 306 308 312 319 317 306 304 305 302 307 317 316 312 310 306 302 303 304 301 302 304 304 303 303 301 300 304 305 301 299 301 301 302 303 301 301 302 299 299 301 299 297 297 297 298 299 297 296 296 295 297 299 298 298 299 298 298 297 295 295 295 295 296 296 297 295 294 294 293 293 293 293 293 292 293 293
303 304 304 304 305 305 305 304 304 304 306 307 307 309 314 311 305 310 309 300 305 313 310 312 314 309 306 304 303 302 301 302 304 303 302 300 300 302 303 299 300 301 301 301 303 303 300 299 300 299 299 299 297 297 297 297 299 297 295 296 296 295 297 297 298 300 299 299 298 297 297 296 295 295 295 294 293 292 293 293 293 293 292 292 292 292 292
304 304 304 305 305 305 305 304 305 305 305 309 308 303 307 312 311 315 313 303 303 305 302 310 316 311 311 307 300 302 303 301 301 302 302 301 301 302 301 299 300 301 299 301 307 307 301 299 301 301 302 302 298 295 297 297 296 295 295 296 296 296 297 296 298 300 299 298 298 297 296 295 294 294 294 294 292 291 292 292 292 292 291 291 291 291 291
305 305 305 305 305 304 304 305 305 304 305 309 308 302 307 319 314 308 308 307 310 311 307 311 315 308 310 307 299 301 305 302 302 301 299 301 302 303 303 301 301 301 299 301 305 306 302 299 299 299 301 303 298 294 295 297 295 294 295 295 295 297 299 298 298 299 298 297 296 295 294 293 293 294 293 293 293 291 290 291 291 291 290 290 291 290 290
305 305 305 305 305 304 304 305 304 304 306 308 310 307 306 313 309 302 303 306 311 313 307 309 312 309 310 307 300 305 307 303 303 303 299 300 301 301 301 302 302 302 300 299 301 304 303 302 301 300 299 300 300 297 297 297 295 294 295 295 295 297 300 298 296 297 297 295 293 293 293 292 292 293 292 291 292 291 291 290 290 290 289 289 289 289 289
305 305 305 304 305 304 303 305 303 304 306 306 310 310 304 305 306 301 300 305 307 305 302 306 312 311 312 310 304 307 310 302 303 304 302 303 302 299 300 300 302 305 302 299 301 304 303 302 302 301 299 298 300 300 298 297 295 295 296 296 293 295 300 298 294 295 295 293 293 293 293 293 292 291 291 290 290 291 290 289 289 289 289 289 289 289 289
304 305 304 303 305 304 304 307 305 306 308 304 306 309 305 307 310 305 305 308 305 303 304 310 314 310 309 310 304 307 312 305 303 303 301 301 301 300 300 300 302 306 304 301 303 303 302 300 299 299 298 298 300 300 297 297 297 297 297 295 292 294 299 297 294 295 294 293 294 294 293 292 291 290 290 289 288 289 288 288 288 288 289 289 288 288 287
303 304 304 304 305 304 305 307 305 306 308 305 306 305 302 303 303 303 311 310 303 305 307 309 316 312 308 309 304 305 310 305 303 303 299 300 302 300 300 301 303 304 303 304 306 304 301 301 300 299 298 298 300 298 295 296 298 300 298 295 294 295 296 296 295 295 294 294 295 293 291 292 292 290 288 287 287 288 288 288 288 288 289 289 287 286 285
304 304 304 304 305 304 305 305 304 307 308 306 306 303 300 302 300 300 311 310 302 306 308 308 315 309 303 306 304 304 308 305 302 301 301 302 304 300 300 301 302 303 304 304 304 301 299 299 299 297 297 297 297 296 295 295 297 299 299 295 293 293 294 295 295 295 295 295 293 292 292 294 295 291 287 287 287 287 287 288 288 288 288 287 286 285 285
304 304 304 304 304 304 305 304 304 307 308 307 305 301 301 306 304 308 322 315 302 303 308 308 311 305 301 304 305 303 306 306 304 300 299 303 303 300 300 301 301 304 303 298 295 294 294 295 295 295 296 297 297 297 296 296 295 297 298 296 294 293 294 295 293 294 296 295 292 292 294 296 294 289 286 287 287 287 287 288 288 288 287 285 285 285 284
304 304 304 304 304 304 305 305 306 307 307 307 305 302 303 305 305 317 337 322 302 303 309 306 305 305 303 304 306 305 305 307 306 303 300 302 302 300 301 300 300 301 298 293 293 292 292 293 294 295 296 296 296 297 297 297 296 295 295 295 296 295 295 294 292 293 296 295 293 294 296 295 291 287 287 287 287 287 287 287 288 287 285 284 284 284 283
304 304 304 304 305 305 304 305 305 306 306 306 305 305 307 304 303 316 332 322 304 305 310 303 298 301 304 304 307 306 302 301 303 302 302 302 302 303 302 301 300 298 294 293 295 295 296 297 298 297 297 297 297 297 297 298 298 296 294 293 293 294 294 293 292 294 295 294 293 294 295 293 289 287 287 287 287 287 287 287 287 285 284 284 284 283 283
304 304 304 304 304 304 304 304 304 304 305 305 305 307 306 304 308 316 324 321 308 300 301 303 302 303 305 305 305 303 300 300 301 300 299 300 303 306 304 300 298 294 291 294 297 297 299 305 308 306 304 305 305 301 297 297 297 296 295 294 292 293 295 293 292 294 294 293 293 292 293 293 289 287 287 287 286 286 286 287 287 284 284 284 283 283 283
304 304 305 304 304 305 304 304 304 304 304 304 305 308 307 305 307 309 310 315 312 302 299 304 307 307 307 306 303 301 302 304 301 298 298 299 302 303 299 295 294 292 291 295 300 302 302 305 310 309 306 306 304 300 298 297 295 293 293 293 291 291 293 293 294 295 293 293 293 292 293 294 289 286 286 287 286 286 286 286 286 285 284 284 283 282 282
305 305 305 305 305 305 304 305 305 304 305 305 304 305 305 304 304 302 301 308 316 308 301 299 300 303 305 303 299 299 303 306 303 301 302 303 303 301 296 292 292 293 294 297 302 306 305 303 303 302 302 300 297 297 299 297 296 294 292 291 292 292 292 293 295 295 293 292 292 292 294 294 288 285 286 286 285 286 286 286 286 285 284 283 282 282 281
305 305 305 305 304 305 304 305 305 304 305 304 304 305 304 302 303 301 304 312 318 308 296 292 295 302 305 303 299 299 303 304 302 301 303 303 301 301 299 294 292 294 295 299 306 309 307 303 302 303 302 298 295 297 299 297 296 296 294 293 296 298 296 294 294 293 292 292 293 292 293 291 287 285 286 286 285 286 286 285 285 285 283 282 282 281 281
305 304 305 304 304 304 304 304 304 304 305 304 304 305 303 303 304 302 306 316 320 306 292 288 296 303 303 302 300 298 298 300 300 300 302 301 299 300 300 298 297 295 294 299 308 309 304 300 300 301 301 297 295 297 298 297 296 296 295 294 297 298 296 293 293 293 292 292 292 292 292 289 286 285 286 285 285 286 285 284 284 284 283 282 281 281 280
304 304 305 304 304 304 304 304 303 304 304 305 305 305 302 303 304 301 305 315 317 306 293 287 293 298 294 294 298 298 295 297 300 302 304 302 298 297 297 297 297 295 296 302 307 303 300 299 297 296 300 301 298 296 296 296 296 295 294 294 294 295 294 292 292 292 292 292 291 292 293 288 285 286 286 285 285 285 284 284 284 283 282 282 281 280 280
304 304 304 304 304 304 303 303 303 303 303 304 305 305 302 301 302 300 304 309 304 299 292 287 290 293 290 292 300 301 297 297 300 304 307 302 296 297 303 302 298 297 299 304 303 298 298 301 297 294 298 301 298 296 296 297 295 293 294 295 294 292 292 293 294 292 291 292 292 292 293 289 285 286 286 285 284 284 284 284 283 282 282 281 280 280 280
304 304 304 304 304 304 304 303 303 303 303 302 303 304 301 300 302 302 301 303 301 299 296 290 289 290 289 289 291 293 295 296 296 300 303 299 293 297 303 302 300 300 300 301 300 297 296 299 298 296 297 297 296 295 296 297 296 293 291 294 295 292 291 293 294 291 290 292 292 292 292 288 284 285 285 284 284 284 283 283 282 282 281 280 280 280 279
303 303 303 304 303 303 304 303 303 303 302 302 302 302 300 297 298 300 300 300 298 296 294 290 288 289 289 289 289 288 289 291 290 292 296 297 294 295 299 301 300 299 298 298 299 298 296 297 298 297 297 298 297 296 293 294 298 296 292 293 296 294 292 292 292 292 291 291 291 291 289 286 285 285 285 284 284 283 283 282 282 281 281 280 280 279 277
302 302 303 303 303 303 303 303 303 303 301 302 302 302 300 297 297 299 300 297 291 290 290 289 290 291 290 289 290 289 288 289 289 288 290 296 299 296 296 298 297 295 295 296 297 300 302 300 297 297 299 298 296 296 294 294 298 297 293 294 295 293 291 289 289 291 291 289 289 290 288 286 285 285 284 284 283 283 282 282 281 281 281 280 279 277 275
302 302 302 302 302 303 303 302 302 303 301 302 303 301 300 298 298 299 299 296 294 297 295 291 292 294 293 291 290 290 289 289 289 288 287 292 298 298 296 294 293 295 297 294 291 295 300 298 293 295 299 297 295 297 297 296 298 296 294 296 296 291 288 288 288 289 289 289 289 289 286 285 285 284 284 283 283 283 282 281 281 281 280 279 278 276 274
301 301 301 302 302 302 303 302 302 302 301 301 301 301 300 299 299 301 301 299 299 303 302 297 294 293 292 292 290 289 290 290 289 289 288 288 292 296 296 293 292 296 296 291 290 295 299 297 294 296 298 295 294 296 296 295 296 294 293 296 296 291 289 288 288 288 288 288 289 287 285 285 285 284 284 283 282 282 281 281 281 281 279 278 276 274 273
301 301 300 301 301 301 302 302 301 302 301 301 301 301 300 299 299 300 301 298 298 302 305 301 295 292 292 292 290 289 290 292 291 289 289 289 289 291 293 293 292 293 292 290 291 296 299 298 297 300 299 293 292 295 296 295 294 292 293 295 293 290 289 289 288 288 288 288 287 285 284 285 285 284 283 282 282 282 281 281 281 279 278 277 275 273 273
301 301 300 300 300 300 301 301 301 301 301 301 301 300 300 300 300 299 300 299 300 305 307 301 295 292 291 290 289 289 290 292 292 291 290 291 292 291 293 294 293 294 295 293 292 295 300 299 297 297 297 292 290 292 293 293 292 292 293 295 291 288 289 289 288 288 289 288 286 284 284 284 284 283 283 282 281 281 281 280 279 277 276 275 273 272 272
301 301 301 300 300 300 300 300 301 301 301 301 301 301 300 300 300 300 301 301 302 304 304 299 295 293 292 291 290 291 291 291 292 293 292 292 293 293 293 293 293 295 298 296 295 298 300 298 295 294 293 291 292 292 291 290 291 293 294 293 290 288 289 288 287 288 288 287 285 284 283 284 283 283 282 282 281 281 280 279 277 276 275 274 272 271 271
300 301 301 300 301 300 300 300 301 301 301 302 302 301 300 299 299 299 300 300 299 298 297 298 296 293 294 293 291 290 291 290 291 292 292 292 292 292 292 292 292 293 294 295 297 300 298 295 294 293 291 290 293 294 292 293 295 297 295 293 291 289 288 287 287 287 286 286 285 283 283 283 283 282 282 281 280 280 279 277 276 275 274 272 272 271 270
300 300 300 300 301 301 300 301 301 300 301 301 301 305 308 303 298 298 299 300 298 298 300 303 300 293 291 292 291 291 291 290 290 291 292 292 292 291 292 292 290 289 292 295 297 297 296 295 294 292 290 289 292 294 293 295 297 297 294 292 291 290 289 288 287 286 285 285 284 282 282 283 282 281 282 281 280 278 277 275 275 274 273 271 271 270 270
299 300 299 300 301 301 301 302 301 300 301 300 301 309 312 305 299 298 299 299 298 299 300 301 297 293 293 293 291 291 291 290 291 291 291 291 291 291 291 292 291 291 295 298 296 293 294 295 295 293 292 292 294 295 293 293 296 297 294 291 290 289 288 287 287 285 284 284 283 282 282 282 282 281 281 280 279 277 275 274 273 272 271 271 270 270 269
299 299 299 299 300 300 300 301 300 300 301 300 300 302 302 300 299 299 299 299 299 301 306 305 299 296 298 296 291 290 291 291 290 291 291 291 291 291 291 291 291 292 294 297 296 293 292 293 294 294 291 291 293 294 291 292 296 297 293 290 289 288 287 286 286 284 283 282 282 283 283 282 281 281 280 279 277 276 273 273 272 271 270 270 269 269 268
300 299 299 299 299 299 300 299 300 300 300 299 299 298 297 298 299 298 299 300 297 297 304 308 303 297 297 294 290 290 292 292 291 291 292 290 289 291 292 291 291 291 292 293 294 293 291 291 293 293 290 288 290 293 292 293 295 295 291 289 288 287 286 286 285 284 282 282 282 282 282 282 281 280 279 278 277 275 273 272 271 270 270 269 268 268 267
300 300 300 299 299 299 299 299 299 300 299 298 298 298 298 299 298 298 299 299 297 297 300 304 304 299 295 296 297 293 291 292 294 294 293 291 289 290 292 292 292 292 291 291 292 292 292 291 291 291 290 288 288 290 293 294 294 292 290 288 287 286 286 285 284 283 282 282 281 281 281 281 280 279 278 277 276 274 272 271 271 269 269 268 268 267 266
300 300 300 299 299 299 299 299 299 299 298 298 297 297 298 298 298 299 299 298 301 306 305 301 303 303 298 300 303 296 290 292 294 292 292 291 289 289 292 294 295 293 291 290 292 293 292 291 290 292 292 290 289 292 296 296 293 291 289 289 287 286 286 286 285 284 282 281 280 280 280 280 279 278 277 276 275 273 271 270 270 269 268 267 267 266 265
300 300 300 300 300 299 299 300 299 299 298 298 297 297 298 298 297 299 299 297 300 307 307 302 303 302 298 298 301 294 290 292 293 291 291 292 290 289 292 295 296 293 289 290 292 292 290 288 290 292 292 292 295 297 296 294 293 291 290 289 287 285 285 285 283 283 282 280 279 280 279 279 279 277 276 275 273 272 271 270 269 268 267 266 266 265 264
300 300 300 300 300 300 299 298 298 298 298 297 298 298 298 299 298 298 299 297 296 298 301 304 303 296 292 295 297 293 291 293 293 292 293 294 293 291 293 296 297 293 291 292 293 290 288 287 289 293 295 295 297 296 292 291 291 290 289 288 287 284 284 283 282 282 282 281 281 280 279 278 278 277 275 273 272 271 270 269 268 268 266 266 265 264 263
300 300 300 300 301 303 302 298 297 298 298 297 299 299 297 299 301 301 299 299 298 294 294 298 299 294 291 294 295 292 291 292 293 293 293 292 293 293 292 294 294 292 293 295 292 287 287 290 289 291 294 295 292 290 290 290 289 288 287 287 285 283 282 281 280 282 283 283 281 279 277 277 277 275 273 272 271 270 269 269 268 267 266 265 264 263 262
301 300 299 300 301 303 302 298 296 298 298 297 299 300 297 298 302 301 299 299 300 297 294 296 296 293 293 297 296 292 290 292 296 297 294 292 293 294 293 293 291 290 294 297 291 286 289 294 291 290 294 296 293 291 289 289 287 285 283 283 282 282 281 281 280 281 282 282 280 278 277 276 275 273 272 271 270 269 269 268 267 266 265 264 263 262 262
300 299 299 300 299 298 299 297 296 299 299 297 298 301 300 299 299 299 300 302 300 295 294 294 292 288 289 293 294 292 289 290 293 296 295 292 291 291 291 293 291 290 295 299 293 288 291 294 292 292 297 300 297 291 288 287 287 284 281 281 282 282 281 280 280 280 280 279 278 277 276 274 273 272 271 270 269 268 268 267 266 265 264 263 262 262 261
299 299 299 300 299 297 297 298 297 297 297 298 300 301 301 299 296 293 297 303 301 294 290 290 291 291 290 289 291 292 291 287 286 289 292 293 290 290 292 292 290 290 295 297 293 290 292 293 294 296 300 301 296 290 287 288 288 284 281 281 282 281 281 280 280 279 278 278 276 275 274 272 271 270 270 269 268 268 267 266 265 264 263 262 262 261 261
299 299 298 299 299 298 298 299 298 297 298 301 302 300 298 298 298 296 297 298 297 293 290 290 291 292 290 287 288 289 288 286 286 289 292 293 291 291 292 292 290 293 295 292 288 290 292 293 295 300 302 298 292 287 287 288 288 285 282 281 281 281 281 280 279 278 277 277 276 274 273 272 270 269 269 268 267 267 267 265 264 263 262 262 261 261 260
299 299 298 299 299 298 299 300 298 298 301 304 303 301 300 300 298 297 297 296 293 292 291 289 288 289 288 286 286 286 286 286 288 290 291 291 291 291 292 292 293 292 290 287 288 293 296 297 301 306 303 295 289 286 287 288 287 284 282 281 281 281 280 279 279 278 277 276 275 273 272 271 270 269 268 268 267 267 266 265 264 263 262 261 261 260 260
298 298 299 300 299 299 300 301 299 299 303 304 302 303 304 302 300 300 300 298 295 294 292 289 289 292 292 288 287 288 288 287 288 290 290 288 289 292 294 296 295 290 287 289 292 294 294 296 299 299 296 291 287 286 287 287 287 285 282 280 280 281 280 279 278 278 276 275 274 273 271 270 269 268 268 267 267 266 265 264 263 263 262 261 261 260 259
300 302 304 305 303 300 301 303 302 302 303 303 303 306 307 306 306 307 301 294 292 292 291 290 291 293 292 288 286 289 290 288 288 290 290 289 290 293 294 292 291 290 290 293 295 294 296 300 300 296 293 291 288 286 286 286 285 283 282 281 279 279 278 278 278 277 276 275 274 272 271 270 269 268 267 267 266 265 264 264 263 262 261 261 260 260 259
300 301 304 307 305 300 300 303 305 303 301 302 307 312 311 308 307 303 293 288 291 294 292 290 291 292 292 289 286 287 289 289 289 289 288 290 293 294 289 287 289 293 294 295 297 300 304 308 305 299 296 292 288 286 286 284 282 281 282 282 280 278 278 278 277 277 276 275 273 272 271 270 268 267 267 267 266 265 264 263 263 262 261 260 260 259 259
300 299 302 306 305 301 300 301 301 299 298 300 303 304 299 295 294 291 284 283 289 292 289 287 287 288 288 287 286 287 289 289 289 288 287 289 293 292 288 288 293 297 297 299 304 308 310 308 305 302 297 292 288 287 286 284 281 280 281 281 279 278 278 278 277 276 275 274 273 272 271 269 268 267 266 266 265 264 263 263 262 261 260 260 260 259 259
301 299 301 305 305 304 303 300 296 294 294 292 291 289 285 286 292 292 284 279 283 288 290 290 290 290 288 287 287 289 289 289 290 289 287 288 292 294 293 295 296 296 296 299 305 310 311 309 306 303 298 292 288 288 287 284 282 281 280 279 278 278 278 278 276 275 275 274 272 272 271 269 268 267 266 265 265 264 263 262 262 261 260 260 259 259 258
299 298 300 301 302 301 298 293 295 300 299 290 286 286 286 291 297 293 283 279 283 287 286 286 289 292 291 288 288 290 290 290 291 290 287 289 294 296 297 299 301 302 302 302 302 305 308 308 305 303 299 293 289 288 286 284 282 280 279 279 279 279 278 277 276 275 274 273 272 272 271 269 267 267 266 265 265 264 263 262 262 261 260 260 259 258 258
296 299 301 300 300 301 295 292 298 308 306 297 294 293 292 296 299 291 281 280 284 285 283 285 289 291 289 288 291 295 293 290 290 291 292 295 297 295 295 300 306 311 313 308 303 303 306 304 300 300 300 295 290 288 285 282 280 279 279 279 279 279 278 277 276 274 273 273 272 272 270 268 267 267 266 265 264 263 263 262 262 261 260 260 259 258 258
297 299 299 296 297 301 301 300 305 310 308 307 307 300 294 298 301 291 282 281 285 288 290 293 293 291 291 294 297 296 292 289 288 291 294 296 295 294 299 307 310 311 313 310 304 302 303 300 296 298 300 296 290 285 282 281 280 280 279 279 279 278 277 276 274 274 273 272 272 271 270 268 267 266 265 265 264 263 262 262 261 260 260 260 259 258 258
302 300 297 293 292 296 299 299 301 303 303 304 303 295 292 294 294 285 280 284 289 292 293 293 291 293 296 298 295 292 290 290 292 294 297 297 295 296 302 309 310 308 309 308 304 302 302 297 292 293 296 294 288 282 280 280 280 280 279 279 278 277 276 275 274 273 273 272 271 270 269 268 267 266 265 264 263 263 262 262 261 260 260 260 259 258 258
Wind_Speed
8 8 9 9 8 6 4 3 5 6 5 3 1 2 3 4 3 4 10 2 3 10 6 3 5 4 0 0 1 2 1 2 0 0 1 0 0 2 1 1 0 1 1 0 1 1 2 2 1 1 2 2 1 1 1 1 1 1 1 2 1 0 2 2 6 6 7 8 2 3 1 2 2 3 2 0 2 2 4 6 6 4 4 4 7 10 7
9 9 8 7 5 3 3 3 4 4 5 3 2 3 2 2 3 4 11 4 2 5 4 2 2 1 0 2 2 2 1 2 1 0 1 0 1 1 1 0 1 0 1 1 1 1 1 1 1 0 2 2 0 1 2 1 1 2 1 1 2 2 1 2 6 7 7 7 5 3 3 2 2 4 2 1 3 5 3 3 3 2 4 4 7 11 7
9 8 6 4 3 3 3 2 2 4 5 3 3 4 3 3 1 3 12 14 8 4 4 6 5 2 2 4 2 2 1 0 0 1 1 0 2 1 1 1 1 0 1 1 1 1 0 2 2 2 1 3 1 0 1 0 1 1 2 2 1 2 1 1 1 4 7 8 8 8 8 6 4 6 7 5 3 4 5 5 4 5 7 6 6 10 10
8 6 4 3 3 3 4 3 2 3 4 3 5 5 2 3 3 2 7 12 10 4 1 5 6 4 4 4 1 1 1 1 1 2 1 0 2 1 1 0 1 2 2 2 3 2 1 1 2 2 2 3 2 0 1 2 1 1 2 2 2 1 1 2 5 5 6 8 10 11 10 9 10 14 15 13 6 1 1 3 4 7 10 9 8 11 17
6 5 3 4 3 2 2 2 2 0 2 2 4 6 4 2 2 2 1 4 5 4 4 5 4 3 4 3 0 1 0 2 1 1 1 1 1 0 1 1 1 1 2 2 2 3 2 1 1 1 2 4 3 1 1 2 2 1 1 2 3 3 2 4 5 8 10 11 13 14 11 10 14 16 15 14 12 6 4 4 7 8 8 10 13 17 22
4 4 3 3 2 1 1 1 1 1 1 1 2 4 5 2 2 1 1 2 2 3 3 3 5 4 3 3 1 1 1 0 1 1 0 1 0 1 1 3 1 1 0 1 1 4 4 2 2 1 2 3 4 4 1 1 2 1 2 3 3 4 3 4 3 7 11 11 13 14 11 9 11 12 12 12 12 9 6 6 8 6 7 12 18 23 23
4 4 4 4 4 4 2 2 1 1 2 2 4 4 3 3 3 0 2 3 3 1 1 3 6 6 4 3 1 2 3 1 1 1 1 2 2 1 1 4 3 2 2 2 0 2 2 3 4 1 1 3 3 3 2 1 2 1 2 3 2 3 3 3 1 7 11 11 13 12 10 9 9 10 10 8 8 8 7 7 8 8 11 16 21 24 19
4 4 4 4 4 5 2 1 3 4 3 2 4 5 2 2 4 1 3 4 2 1 2 3 4 4 3 2 1 2 4 3 1 1 2 1 2 2 1 4 4 1 3 4 2 4 5 4 5 3 0 3 1 1 2 2 3 3 2 2 1 1 3 2 2 5 11 11 10 8 8 10 9 8 8 7 8 8 7 6 9 12 15 19 20 18 13
4 3 3 2 4 5 4 3 4 2 1 2 3 4 3 4 5 6 6 4 3 2 2 3 4 2 2 2 2 2 3 4 2 1 1 1 1 1 1 4 3 1 2 4 5 6 6 6 7 6 4 3 3 2 2 1 3 5 2 2 3 2 2 3 5 5 9 8 9 13 15 10 5 6 9 10 9 9 8 8 10 14 18 20 16 10 9
3 2 3 3 4 5 4 2 2 2 3 3 4 4 5 6 5 4 6 4 2 2 2 3 4 2 1 2 2 1 1 2 1 2 0 0 1 3 3 3 0 2 2 4 5 5 5 6 6 4 4 3 2 1 2 2 1 2 1 1 1 2 1 4 3 4 9 9 11 14 13 8 4 4 8 11 11 11 10 10 14 15 13 12 9 7 12
4 3 4 4 4 4 3 2 2 3 3 2 4 8 8 6 4 3 6 5 2 1 1 1 3 2 1 2 2 1 1 1 0 1 0 1 0 1 3 4 0 3 3 3 2 2 2 3 2 3 3 1 0 1 2 2 2 2 2 0 1 3 2 2 0 1 9 13 13 10 7 8 3 2 3 8 10 13 14 16 19 14 8 7 10 12 17
6 5 5 5 5 4 4 4 3 3 4 4 8 11 9 6 5 4 6 5 1 2 2 1 1 1 1 2 3 1 3 2 1 1 1 1 1 0 2 4 0 3 2 1 0 2 4 3 3 3 4 2 0 2 3 2 2 1 2 2 1 2 3 2 1 1 6 8 9 8 8 5 2 4 4 8 9 12 18 21 16 9 9 12 14 16 19
9 9 8 7 7 7 6 7 7 6 6 7 8 11 10 8 7 5 5 6 1 1 2 2 1 1 1 3 3 1 2 1 1 1 1 0 1 1 1 2 2 2 2 2 2 4 3 1 2 1 1 3 3 2 2 2 2 1 2 1 1 0 1 1 1 1 4 6 7 6 9 5 2 2 8 12 10 11 16 18 9 4 7 15 16 18 20
12 11 11 10 9 9 7 7 7 5 5 6 7 10 11 8 5 4 5 6 1 3 2 3 1 0 2 3 3 1 1 2 3 2 1 1 1 3 3 2 2 3 4 2 3 4 2 1 4 3 3 5 5 2 1 1 1 1 1 1 1 2 1 1 2 1 2 7 7 7 10 7 3 5 9 10 10 11 12 14 7 3 9 16 17 20 21
12 12 12 11 11 10 9 8 7 6 6 5 5 9 10 6 4 5 6 7 4 2 1 3 4 4 4 2 2 3 1 2 2 1 2 1 1 3 3 2 2 4 3 2 3 3 2 3 4 3 4 4 2 3 3 2 1 1 1 1 3 2 1 1 2 2 2 4 7 8 10 7 2 4 9 8 12 16 14 11 6 4 12 18 19 21 22
12 11 11 11 10 10 10 9 8 8 7 6 4 8 9 6 6 9 9 7 6 3 2 3 4 5 4 2 2 2 2 1 2 1 3 3 3 3 2 1 2 3 3 4 3 3 4 3 3 1 1 1 2 3 3 2 2 2 2 4 5 5 2 4 2 2 2 3 5 5 8 5 2 9 12 10 12 16 14 10 6 7 15 19 19 20 22
12 11 11 11 10 10 10 9 9 8 6 5 4 6 9 9 9 11 10 7 5 3 2 2 3 3 3 2 1 1 2 2 2 2 0 2 2 3 3 2 2 1 3 4 3 4 5 3 2 2 2 3 1 2 2 2 3 5 5 5 5 5 4 4 3 3 3 3 3 3 4 4 5 13 14 12 13 12 9 10 10 12 17 17 18 20 21
13 12 12 11 10 10 10 8 7 6 5 5 4 5 9 10 8 8 8 6 5 2 1 1 3 2 2 3 2 1 1 1 1 1 0 1 1 1 2 1 1 2 2 3 3 3 4 2 2 2 2 3 1 1 2 2 3 4 5 3 2 3 2 2 2 4 4 3 4 4 4 3 6 12 12 14 15 10 6 6 10 15 19 17 16 20 20
13 13 13 12 11 11 10 8 6 4 3 3 3 4 8 9 9 9 8 6 5 3 2 1 1 1 0 1 1 0 0 1 2 3 1 2 1 1 1 1 1 1 1 3 3 2 3 1 0 3 1 3 2 1 1 1 1 2 4 3 2 3 3 2 2 3 4 4 4 6 4 1 6 12 11 13 13 7 4 8 11 16 19 18 18 20 19
14 14 14 13 13 12 11 10 8 5 5 3 2 5 9 8 7 5 6 7 6 4 1 0 0 2 0 1 1 1 0 1 2 3 4 1 1 3 4 2 1 1 2 3 2 1 2 0 2 1 2 3 2 1 1 3 2 1 2 2 1 1 2 3 3 2 4 5 4 5 4 2 12 17 12 10 7 6 8 12 13 14 17 18 18 17 16
15 15 14 14 14 13 12 12 10 7 7 5 1 6 11 10 5 3 9 17 14 5 1 1 2 4 4 2 2 2 1 2 2 1 3 1 1 3 3 2 1 1 1 2 2 1 1 2 2 1 1 2 1 1 0 2 3 3 2 1 1 1 1 2 3 2 3 4 2 3 5 5 12 13 8 5 6 7 9 11 12 13 14 15 14 13 15
15 15 15 14 15 15 14 14 12 9 8 5 2 7 16 21 20 15 18 25 22 11 7 8 8 8 9 7 5 5 3 2 2 0 2 2 1 1 2 2 2 2 2 2 3 1 1 2 2 1 1 1 1 1 1 1 2 4 1 2 1 3 3 2 3 2 2 4 7 7 5 6 9 8 5 5 8 8 8 9 11 13 13 12 11 12 14
16 16 16 15 15 16 15 15 14 11 9 6 6 13 22 24 20 18 21 26 24 15 11 10 8 8 8 7 7 7 6 3 2 1 2 2 1 1 1 1 2 1 0 2 2 3 3 2 2 2 1 1 1 1 1 0 2 3 1 1 3 4 2 3 2 4 4 6 9 8 4 6 8 5 1 4 7 8 7 8 9 12 13 11 10 11 13
15 16 16 16 16 16 15 16 16 15 12 9 8 16 24 24 21 22 22 19 12 6 5 5 4 3 4 4 5 7 7 4 1 0 2 2 1 0 1 1 2 1 0 1 2 3 3 2 2 2 1 2 2 2 0 2 3 2 1 2 4 3 2 2 2 3 4 5 8 6 7 10 11 6 2 5 7 6 6 7 9 11 11 10 11 13 15
13 13 14 15 16 16 16 15 15 16 16 13 13 18 23 22 17 15 14 10 5 5 4 3 3 2 3 4 4 5 6 5 3 1 2 1 2 2 2 2 3 3 2 3 3 4 3 2 2 2 1 2 1 2 2 2 2 2 2 2 3 2 1 2 3 3 5 8 9 6 7 9 8 5 5 6 7 7 8 9 11 12 11 10 13 16 15
11 10 10 11 13 15 16 15 15 14 13 12 14 16 19 17 11 9 13 15 10 6 5 1 2 2 2 3 4 5 6 6 5 4 4 4 4 4 4 5 5 4 4 4 3 3 4 3 2 3 2 1 1 2 3 2 1 1 2 4 2 1 0 2 4 6 7 7 6 7 8 7 5 5 8 7 6 9 11 11 12 13 12 11 15 17 16
13 11 9 8 9 12 14 16 17 16 14 12 12 12 13 12 10 11 14 12 6 3 3 2 2 2 3 4 4 6 6 6 7 8 6 6 6 4 4 6 5 4 4 4 2 2 4 3 1 2 2 1 1 2 2 1 1 2 2 4 1 1 2 2 3 5 7 6 4 6 8 7 6 8 10 8 8 10 11 10 11 12 11 12 14 16 18
13 13 12 9 6 6 8 10 14 16 17 17 17 17 17 14 9 6 5 1 1 4 5 3 2 2 3 3 4 5 5 5 7 8 7 7 7 5 5 6 4 3 3 3 1 2 3 1 1 1 1 1 1 1 1 2 1 0 3 3 2 1 2 1 2 5 8 8 5 4 4 7 9 10 8 7 10 11 10 9 10 11 13 15 14 13 15
12 13 13 11 8 3 1 3 4 6 8 9 11 16 19 19 17 12 6 5 12 15 8 3 4 3 1 1 2 3 3 4 5 5 6 6 7 7 7 7 5 3 3 3 2 3 2 1 2 1 1 1 1 1 1 1 0 3 4 4 4 3 5 4 3 6 7 5 4 2 4 7 8 9 8 8 12 11 8 9 12 13 16 17 15 13 13
11 12 12 12 11 8 3 2 4 4 3 2 2 5 9 11 13 15 13 11 15 14 8 3 3 1 1 0 1 2 1 2 2 3 4 6 7 7 7 6 5 3 3 3 2 3 1 0 0 1 2 1 2 1 1 2 2 4 4 4 4 4 4 4 4 5 4 3 2 3 5 6 7 8 7 9 14 12 8 10 14 15 17 19 17 15 15
9 11 12 13 14 13 10 6 2 5 5 3 1 2 3 2 3 7 8 7 7 9 7 4 2 1 1 1 1 2 2 1 1 2 3 4 5 6 5 4 3 2 2 2 2 2 2 1 1 1 2 1 3 2 2 3 2 5 5 4 4 4 4 4 4 4 4 3 3 5 6 5 5 7 6 8 12 11 10 13 15 16 17 19 17 15 16
7 8 9 12 14 16 16 15 10 6 5 6 8 7 5 4 3 4 5 5 6 7 7 5 2 1 1 2 2 2 2 2 2 2 2 2 3 3 3 3 2 2 3 3 1 1 1 2 1 0 1 1 3 2 2 3 3 6 5 4 4 4 4 4 4 3 3 2 3 4 5 4 4 5 6 9 11 11 12 15 17 16 17 18 16 15 16
5 6 6 8 10 13 16 17 16 15 16 18 17 14 10 6 4 4 5 5 6 6 5 4 3 1 0 1 1 3 3 1 1 2 2 2 2 2 2 3 2 2 3 2 1 1 0 2 2 0 1 1 3 2 1 4 6 6 4 3 4 4 3 3 3 3 3 2 2 2 5 6 6 6 8 11 11 11 13 15 15 15 15 15 14 16 18
3 4 5 6 6 8 10 13 14 17 18 18 17 17 17 13 8 4 3 4 6 7 6 4 4 1 1 1 1 2 2 1 1 1 1 2 3 1 0 3 3 2 1 1 1 1 1 1 2 1 2 1 2 1 3 6 7 5 4 4 4 2 1 2 2 3 3 4 4 5 7 8 7 6 8 9 8 10 14 14 13 12 11 10 10 15 17
2 2 4 5 5 5 6 8 10 12 13 13 11 13 16 17 16 13 7 3 3 3 3 3 4 3 1 2 2 2 2 1 1 0 0 1 3 2 2 1 2 1 0 1 1 1 1 1 2 2 2 1 1 3 5 6 6 5 4 4 2 2 1 2 3 3 4 5 6 7 7 7 5 5 5 6 6 10 13 12 10 10 8 6 9 13 14
1 2 3 4 4 3 3 4 5 6 6 7 7 8 10 11 13 15 14 13 11 6 2 1 3 2 2 0 1 2 2 1 1 1 1 1 2 2 3 2 1 0 1 2 1 0 0 1 2 1 2 2 3 6 6 6 6 5 5 5 4 4 3 4 4 4 4 5 5 5 5 4 3 3 4 4 6 9 10 9 8 9 7 6 9 12 13
1 2 3 3 2 3 3 4 5 4 4 5 5 5 5 4 4 7 10 13 14 11 6 4 2 1 1 1 1 3 3 2 1 3 3 1 1 1 2 2 0 2 2 3 0 2 0 1 1 2 3 4 5 6 5 5 5 5 5 4 4 4 4 4 4 3 4 5 4 3 3 4 3 3 4 4 5 7 7 6 7 8 8 8 9 11 13
1 2 3 2 1 2 2 2 2 4 4 3 2 2 4 4 4 4 5 6 7 8 7 5 2 1 1 0 2 3 3 1 1 2 1 1 1 1 1 1 1 1 2 3 3 2 1 2 1 2 5 5 4 5 6 5 5 4 4 4 5 5 5 5 5 4 2 4 4 3 3 4 5 4 3 4 5 5 6 7 8 8 9 10 11 13 14
1 2 2 2 2 1 1 1 2 4 3 1 2 2 3 5 4 2 3 3 3 3 4 3 1 1 2 2 2 3 3 3 2 2 1 1 1 1 1 0 0 0 1 2 1 1 1 2 1 1 4 6 4 5 6 5 4 4 5 7 8 8 8 8 8 6 4 4 4 3 3 4 4 3 2 3 4 5 6 8 8 9 10 11 12 14 15
2 2 2 2 2 2 2 2 3 3 1 3 3 2 2 3 3 1 1 3 3 1 1 2 1 1 1 2 1 3 3 3 1 0 1 1 1 0 1 0 0 0 1 2 2 1 1 2 2 2 4 6 5 5 6 5 4 5 7 10 11 11 9 9 8 8 7 6 4 4 4 3 2 3 3 2 3 4 6 7 8 9 11 12 13 14 14
1 2 2 3 4 4 4 4 3 2 2 2 3 3 2 2 1 1 1 3 2 2 1 2 2 2 1 2 2 2 2 2 2 2 2 0 1 1 1 1 1 1 1 4 2 2 2 1 2 3 5 6 4 5 6 6 4 5 8 11 12 11 10 9 9 9 8 7 6 5 5 3 2 3 3 2 3 3 5 7 8 10 11 12 13 13 13
4 5 6 7 6 5 3 3 3 3 2 1 2 2 1 1 1 1 1 1 0 1 1 1 1 1 1 1 2 2 1 1 2 2 2 1 1 1 1 1 1 1 2 3 0 3 2 2 4 6 7 6 5 5 6 6 5 5 8 12 13 12 11 11 10 9 9 8 7 6 5 4 3 3 2 2 1 2 4 6 8 9 11 12 12 12 13
8 8 7 5 4 3 3 2 2 2 2 2 2 1 2 2 2 1 1 2 1 0 1 1 0 1 0 1 1 1 0 1 1 1 1 0 0 2 2 2 1 1 1 0 3 2 1 4 5 6 6 4 5 6 6 6 5 5 8 13 14 12 11 12 11 10 9 7 6 5 5 4 3 2 2 2 1 2 4 5 7 9 11 12 11 10 12
5 3 3 2 2 3 3 1 1 1 1 1 1 1 1 2 1 1 1 2 1 1 1 0 1 1 1 1 1 1 0 1 1 1 1 0 1 2 2 1 2 1 1 1 1 1 3 5 6 6 4 2 4 7 6 5 5 5 7 10 13 12 11 11 11 10 9 8 7 6 5 4 4 3 2 2 2 2 4 5 6 8 10 11 10 10 12
1 2 4 3 2 2 1 1 1 1 1 1 2 4 3 2 3 4 3 1 1 1 1 1 3 2 1 2 1 1 0 1 1 0 0 1 1 1 1 2 1 1 2 1 2 2 4 6 6 5 5 5 7 8 6 6 7 7 7 7 10 13 13 12 11 11 11 10 9 7 6 5 4 4 3 2 2 2 4 5 6 8 10 10 10 11 12
2 2 3 2 2 2 1 1 1 1 1 2 3 4 4 4 5 4 2 0 3 3 2 1 3 3 1 2 1 0 0 1 1 1 1 2 1 1 2 1 1 2 1 1 3 4 6 7 5 5 7 8 8 7 6 7 9 10 8 7 10 13 15 13 11 11 12 11 10 9 7 6 5 4 4 3 3 3 4 5 5 7 8 8 8 10 12
3 2 3 2 1 2 1 1 1 1 1 3 3 4 3 2 2 2 1 1 3 3 2 2 2 1 1 0 1 0 1 2 1 1 0 1 0 1 1 1 1 1 2 3 6 6 6 6 5 5 6 6 6 7 6 6 8 9 9 8 10 13 14 12 10 11 12 12 11 10 9 8 7 6 5 4 3 3 4 5 6 6 6 6 7 9 11
2 1 2 1 1 1 1 1 2 2 1 1 1 2 1 1 1 2 3 3 4 4 3 3 2 1 1 1 1 0 1 1 0 1 0 1 1 1 2 1 3 3 3 5 6 6 5 5 5 6 6 6 7 7 7 7 8 9 9 9 10 13 13 12 11 12 14 14 13 12 11 10 8 8 6 5 4 4 4 6 7 6 6 5 6 8 10
5 3 2 1 1 2 2 0 2 3 3 1 2 1 1 2 2 4 4 4 3 3 3 3 2 2 0 1 1 1 1 1 1 0 1 1 1 1 1 1 4 4 4 6 6 5 5 5 5 5 5 6 7 7 7 8 10 12 12 14 14 15 15 15 14 14 15 16 15 14 12 11 9 9 8 7 6 5 5 6 7 6 5 5 5 7 9
5 3 2 1 0 2 2 1 1 4 5 4 3 2 2 2 3 4 6 5 3 2 2 1 1 2 1 1 2 1 2 2 2 2 0 2 3 2 1 3 5 6 5 5 5 6 6 4 4 5 6 7 8 7 7 10 12 15 17 18 18 17 17 16 16 16 17 17 16 14 13 12 12 11 9 8 7 6 6 7 7 6 5 4 5 6 8
3 2 1 1 1 2 3 3 2 3 4 3 3 4 4 2 2 5 8 7 4 4 2 1 0 2 2 1 0 1 1 1 2 1 2 4 3 3 3 6 7 7 6 6 5 5 5 4 5 6 6 6 7 8 10 13 17 19 19 19 19 18 17 16 17 17 18 18 16 15 14 14 12 11 9 8 7 7 7 7 7 6 5 5 4 5 7
1 1 0 1 1 3 4 3 2 3 4 3 3 3 2 1 2 6 10 8 4 1 2 1 2 3 0 2 2 1 1 0 0 2 3 4 3 5 6 8 7 6 6 6 6 5 4 5 6 8 8 8 9 12 15 17 19 20 21 21 20 19 18 18 18 19 19 18 18 17 15 13 12 11 10 9 9 9 8 7 7 6 5 5 5 5 6
Wind_Direction
165 158 157 164 168 179 208 278 315 330 343 336 359 67 69 87 148 339 354 346 113 64 63 343 22 71 65 349 84 22 71 108 15 317 13 333 217 25 42 190 93 163 226 242 183 276 242 206 214 242 248 254 248 272 212 161 34 37 343 314 303 64 66 326 290 265 258 271 326 67 50 70 59 292 285 184 293 294 216 247 302 309 276 295 291 287 303
152 152 157 170 180 215 261 297 320 348 2 352 29 100 108 126 175 9 13 356 199 82 98 135 58 79 29 54 34 351 72 127 41 316 304 322 135 76 3 226 44 43 129 109 202 286 325 230 281 34 224 248 308 197 211 201 34 37 15 334 336 320 358 356 333 328 321 323 350 350 308 1 344 283 276 196 299 319 284 265 328 305 263 295 298 292 308
148 153 162 183 219 258 272 288 325 6 15 17 75 120 129 82 143 319 17 38 71 101 147 143 129 145 98 76 33 354 49 144 200 163 208 236 159 136 6 34 76 64 58 28 318 306 296 253 324 17 267 264 348 22 251 354 56 19 341 335 319 285 262 94 43 328 321 321 322 317 317 329 315 288 299 311 318 322 310 315 331 303 299 309 293 290 306
152 164 182 216 251 272 264 261 282 6 29 62 89 91 115 88 67 321 356 28 55 76 104 100 110 146 126 86 18 47 83 289 276 144 154 204 149 122 350 43 58 39 39 6 324 305 277 272 337 346 270 275 307 316 347 28 52 3 1 17 58 75 280 206 182 211 259 273 279 295 313 317 306 303 309 314 319 340 359 344 316 300 308 310 300 306 312
171 189 211 236 265 284 245 229 236 332 43 86 89 56 49 97 89 69 354 9 39 41 22 47 85 142 135 109 150 154 107 304 308 138 189 161 135 107 64 79 60 30 26 17 287 286 327 358 318 278 246 269 294 296 97 52 5 335 358 8 73 77 305 255 205 221 246 261 275 290 303 297 291 297 304 309 319 346 17 316 292 304 316 308 312 320 315
192 214 237 249 242 182 140 124 221 212 64 108 110 47 26 71 136 170 117 80 70 46 32 70 81 71 87 110 128 124 66 340 178 201 311 55 109 130 50 13 16 192 213 49 295 313 346 343 282 300 307 309 336 351 30 39 335 348 9 352 95 116 262 255 216 253 262 268 279 286 290 281 278 290 302 311 322 338 338 287 276 297 306 301 311 317 313
221 232 246 251 228 212 233 308 280 159 124 108 101 80 37 81 114 345 20 91 138 127 66 99 84 61 65 92 105 143 145 154 204 215 39 17 340 70 52 323 319 210 199 126 123 303 342 318 287 269 322 321 356 353 325 311 330 24 24 342 109 139 263 268 258 284 283 281 279 280 286 285 290 304 319 329 324 318 310 288 287 301 299 300 310 313 315
235 236 240 246 218 210 223 100 137 131 114 95 80 82 98 138 144 142 63 72 85 45 39 74 78 48 44 79 97 153 157 170 225 201 111 65 327 29 27 291 295 223 178 160 205 226 190 228 257 200 106 316 274 217 255 267 333 5 51 327 356 49 292 320 36 314 296 289 284 290 296 293 303 324 341 350 341 334 335 323 320 319 310 310 319 318 317
218 216 214 206 181 186 183 138 143 148 128 117 78 77 96 107 128 137 110 70 358 7 32 61 87 50 5 112 161 190 188 189 171 148 170 150 187 199 229 271 294 47 154 196 237 234 187 206 233 194 176 247 219 204 219 194 335 347 15 346 357 27 306 347 37 340 297 300 323 324 315 310 337 10 359 353 354 350 343 332 326 323 317 321 330 328 320
185 178 158 160 164 172 183 177 170 168 156 129 93 115 125 100 95 113 104 80 350 16 35 31 82 101 319 146 162 215 213 203 136 110 319 73 171 209 194 183 283 344 275 237 237 226 196 209 230 197 177 214 215 224 225 184 236 305 48 5 354 89 356 330 15 328 299 316 333 320 313 328 9 28 359 351 349 340 332 327 325 325 328 333 333 327 327
145 149 143 148 156 160 161 165 162 164 174 152 122 150 160 140 121 88 79 79 346 358 85 28 69 113 200 153 127 81 110 143 97 113 123 280 227 216 158 140 18 293 255 232 215 191 172 167 152 116 109 111 209 209 198 191 210 199 144 74 325 81 50 311 263 309 300 314 327 321 330 355 350 152 31 357 341 336 334 329 329 338 6 355 330 330 332
116 118 120 124 126 126 118 110 112 130 147 149 146 153 161 150 129 96 88 105 302 357 90 163 171 149 215 126 110 151 168 176 229 149 138 232 229 44 135 134 17 285 254 287 348 115 105 90 80 80 71 43 265 141 134 179 258 336 114 149 246 39 17 306 197 209 274 306 345 349 343 351 161 158 32 1 346 341 334 326 329 359 18 351 337 334 330
99 98 100 104 106 108 107 102 98 98 114 141 155 154 156 147 117 89 95 112 160 275 105 100 316 66 97 112 107 137 197 149 356 6 79 155 225 267 241 163 185 276 331 351 33 93 112 49 15 33 7 3 17 84 133 219 258 10 70 122 166 94 356 313 231 255 297 332 2 336 301 305 125 79 357 356 354 347 333 324 330 63 15 350 342 331 327
93 92 91 92 94 97 98 97 98 101 116 144 163 155 154 151 123 107 113 107 135 244 143 101 306 141 120 134 117 75 344 15 19 3 27 74 210 250 261 209 210 320 341 11 42 53 86 35 24 6 333 2 15 352 312 292 202 145 296 300 129 131 99 19 332 339 352 330 322 291 286 304 51 12 346 350 345 339 331 321 325 52 7 351 340 329 330
91 88 87 87 85 87 89 90 96 103 102 113 165 165 158 160 145 134 126 112 120 234 202 157 191 173 139 152 146 112 29 8 44 17 329 341 252 252 260 248 309 337 2 67 58 42 60 68 48 14 348 5 352 299 311 344 359 58 30 47 75 61 82 98 332 336 62 335 318 315 314 323 50 337 332 351 342 332 325 310 301 19 3 349 339 332 332
86 83 83 83 79 79 81 78 80 85 84 89 142 154 141 138 135 120 105 100 114 151 221 191 170 143 121 135 181 149 131 124 115 44 337 330 304 283 279 307 338 345 46 66 64 71 64 71 118 98 333 239 238 287 309 332 317 339 29 53 55 24 25 111 89 333 12 345 316 310 308 307 344 332 336 357 343 324 320 313 313 6 359 345 337 333 332
78 76 76 77 74 74 74 71 73 76 81 97 141 150 128 121 127 117 101 87 92 113 203 169 125 106 104 120 201 178 144 142 125 118 265 287 288 304 314 339 4 34 87 63 32 62 67 58 92 67 295 232 173 298 298 338 320 314 338 7 30 15 5 52 41 309 291 294 274 257 256 259 330 336 339 348 335 326 337 331 326 349 350 340 336 334 333
75 75 75 73 71 70 69 70 73 72 77 96 129 141 124 121 131 126 109 95 91 105 228 166 125 118 117 153 184 182 137 128 97 121 296 321 258 263 307 342 29 8 85 84 50 67 78 49 66 89 254 260 50 16 304 337 314 302 320 336 4 353 337 26 357 302 298 287 269 278 261 244 322 331 339 348 342 348 16 333 318 335 338 334 336 335 333
74 74 73 72 72 70 68 70 68 66 78 106 161 140 108 114 134 126 104 87 83 119 194 228 166 165 331 205 184 143 56 94 105 126 91 354 233 178 12 26 74 351 33 82 79 90 88 18 308 127 181 287 326 68 337 312 256 298 336 342 353 345 325 325 324 306 308 296 289 300 276 204 351 343 357 13 2 350 342 323 321 330 330 330 335 333 333
72 71 69 69 70 67 66 66 60 60 69 67 162 125 97 112 145 127 108 114 101 91 113 32 151 159 69 336 158 154 158 65 87 136 142 176 228 75 46 340 296 6 22 59 72 111 109 94 258 161 167 254 266 127 309 306 283 277 317 314 299 313 314 310 296 287 311 313 320 323 297 353 8 358 5 29 15 326 317 323 324 327 329 332 332 329 335
69 69 67 66 66 65 64 62 53 50 59 55 143 113 87 87 99 110 136 132 118 101 178 118 102 115 95 72 113 124 110 83 69 163 152 150 330 88 114 223 224 126 171 109 106 157 162 159 209 230 200 236 292 83 204 325 319 280 224 171 226 243 288 307 284 301 350 330 291 291 297 344 10 4 357 5 352 331 324 321 322 328 332 331 328 331 342
70 70 68 65 65 63 62 63 58 53 60 69 158 123 96 92 94 106 120 109 91 85 121 116 94 86 78 66 63 59 53 60 38 348 132 107 341 85 129 140 125 154 185 121 109 160 170 148 167 168 205 254 2 32 138 91 307 291 302 101 206 242 219 207 228 239 253 247 256 279 309 354 3 354 339 343 342 332 325 321 322 327 330 330 332 340 342
70 69 66 64 65 62 59 62 61 58 67 90 125 122 113 106 104 112 113 98 84 86 104 101 89 76 58 42 38 30 16 15 18 12 84 86 67 36 58 101 124 152 144 97 136 172 162 154 148 131 162 209 125 56 11 4 243 262 286 221 248 247 199 156 216 266 257 245 262 285 325 347 338 329 308 347 341 328 324 327 323 325 331 336 341 343 338
70 69 66 63 62 60 59 61 62 64 74 89 112 118 117 116 114 112 107 97 91 97 85 63 63 57 17 10 22 11 1 8 34 67 53 72 111 67 296 221 145 100 332 203 164 128 118 146 133 102 156 214 146 125 344 278 242 219 214 299 298 281 203 182 242 295 311 289 286 314 343 330 324 326 338 341 337 326 326 326 319 327 340 344 341 339 336
64 64 64 63 61 61 61 61 63 68 76 87 105 117 119 118 118 114 105 99 109 120 96 45 2 359 351 358 12 7 6 22 51 77 49 65 121 128 167 161 121 118 165 173 137 85 76 114 130 115 171 211 181 181 205 229 235 210 204 271 294 276 206 233 267 281 283 275 280 318 331 301 292 308 333 337 336 331 332 331 328 336 345 345 341 341 338
58 56 58 59 60 61 63 66 70 76 83 96 107 115 119 114 107 109 113 110 104 94 95 96 305 336 32 30 20 21 27 38 60 76 74 81 81 94 133 124 96 95 109 98 93 102 101 106 112 122 158 179 155 182 203 215 196 182 220 234 245 326 337 277 285 285 277 269 287 338 331 290 274 328 339 341 342 336 335 336 339 344 346 343 344 344 342
59 57 57 59 64 69 71 73 77 79 85 96 102 107 113 108 107 122 122 110 84 58 102 139 270 314 84 77 40 34 42 56 72 75 79 95 90 89 133 128 98 76 74 63 57 90 85 74 91 146 185 207 135 159 215 273 117 128 259 257 256 353 306 282 305 308 303 305 335 357 335 309 314 337 338 339 342 337 335 339 345 348 348 347 345 342 342
62 60 59 58 66 83 89 89 89 87 85 85 83 83 82 75 82 133 171 214 94 118 127 146 161 136 116 83 26 26 45 63 75 75 71 77 81 83 104 112 101 77 73 80 100 84 74 86 160 161 181 197 138 195 282 347 61 242 263 239 187 206 231 239 320 290 290 309 341 8 331 304 312 328 331 335 343 341 337 343 350 350 352 353 348 339 340
58 58 58 56 54 63 150 163 136 111 94 84 78 76 71 63 63 76 93 119 119 114 105 96 104 99 98 44 6 10 36 46 52 60 57 57 66 72 74 80 89 102 98 101 113 102 102 171 183 175 197 168 175 258 289 80 196 258 237 204 192 208 202 194 228 256 275 309 339 333 297 289 302 317 321 337 350 349 340 347 354 353 352 351 344 338 340
49 49 50 50 49 51 57 201 208 205 186 152 106 72 63 55 60 73 86 106 115 111 102 103 110 79 287 199 17 359 24 54 47 50 51 53 59 59 61 69 77 82 79 75 92 116 142 251 354 289 275 172 137 185 191 144 210 261 247 218 228 243 232 227 228 233 263 300 305 290 281 278 294 308 316 342 354 355 350 353 356 354 348 344 340 338 342
48 46 46 45 46 50 53 60 139 207 217 212 182 75 71 58 53 72 82 92 101 102 99 98 97 15 333 358 19 29 47 68 75 66 54 52 54 50 53 63 54 44 66 72 69 109 148 157 49 349 310 43 98 139 161 146 235 275 263 240 242 240 240 258 250 221 239 278 297 292 282 281 310 321 328 346 354 360 3 356 351 349 344 338 334 334 337
52 51 51 50 50 55 60 64 74 105 127 108 94 95 112 125 96 79 87 95 102 106 102 90 82 54 326 314 329 22 37 36 51 54 40 35 45 40 39 47 41 41 76 96 97 72 145 159 135 128 296 61 79 97 134 157 221 247 237 238 263 251 223 244 263 243 238 274 332 320 303 308 327 324 328 340 349 4 9 354 344 342 339 332 330 334 338
53 55 60 63 61 64 71 75 78 85 89 86 83 80 81 89 95 90 92 91 87 87 90 95 103 106 287 269 312 355 8 5 17 32 38 25 19 13 4 10 20 37 43 66 165 200 106 120 126 151 292 50 83 96 179 219 228 231 228 236 254 247 229 236 249 243 256 300 338 299 284 295 304 315 332 339 345 360 3 350 337 334 334 332 333 338 341
55 63 68 75 78 76 78 79 81 83 83 79 74 69 67 68 70 76 105 117 88 68 63 85 113 119 336 351 354 351 5 357 335 13 58 1 2 43 38 347 4 49 41 29 115 134 350 60 128 193 269 338 73 129 247 249 239 237 254 254 228 210 246 274 256 235 264 298 289 259 265 288 309 330 339 336 338 350 350 343 336 334 335 336 337 338 338
51 94 88 86 87 91 90 83 80 80 78 74 72 71 69 66 62 59 65 93 86 58 31 45 83 115 62 14 333 311 354 32 326 276 184 336 359 58 120 358 359 44 65 3 71 77 321 143 146 197 255 286 201 228 239 242 236 240 264 263 218 161 204 270 262 252 267 289 287 279 287 303 317 333 329 323 339 348 341 335 335 335 331 326 329 334 337
38 138 133 113 95 95 99 76 59 59 67 76 83 78 70 65 60 58 61 63 63 75 131 78 59 105 135 32 294 305 354 19 291 331 7 7 353 23 71 83 74 234 29 41 64 119 285 134 138 243 269 219 218 229 220 203 207 229 248 243 214 181 190 222 232 243 269 281 271 265 278 286 289 309 316 317 338 341 331 324 332 335 329 326 332 338 340
15 147 163 159 107 60 48 36 39 63 94 104 96 72 52 46 50 48 48 49 48 52 77 100 91 161 173 191 286 333 345 317 304 1 2 294 279 341 51 77 209 265 1 19 237 208 259 65 117 203 234 224 225 235 221 188 191 213 225 226 210 187 190 211 211 217 274 287 270 257 286 294 287 305 320 318 328 332 323 320 332 336 333 332 332 334 337
58 128 153 152 83 45 25 9 43 100 119 115 84 46 20 19 40 36 20 23 28 31 51 80 110 268 48 64 306 344 359 340 6 18 2 218 268 343 40 85 170 247 326 305 249 195 60 19 85 217 249 259 259 244 226 203 196 207 204 198 195 185 184 190 182 175 247 289 280 267 287 293 290 298 310 310 311 314 313 318 328 335 334 331 329 330 333
99 132 119 87 84 113 156 79 99 121 127 58 29 37 10 15 37 30 342 357 16 9 25 62 145 185 89 66 319 343 32 54 26 10 2 221 295 319 337 59 171 28 353 299 260 92 6 306 319 312 276 275 269 235 211 191 188 205 199 189 187 183 181 183 183 185 202 233 246 243 246 263 276 278 277 290 302 305 308 315 325 331 332 332 334 334 335
120 121 89 67 90 108 111 115 125 130 101 20 25 46 30 25 45 71 347 28 38 348 4 72 141 204 98 83 294 312 20 48 60 164 189 218 229 117 76 70 226 44 335 271 269 49 48 269 303 317 265 251 241 210 185 174 185 198 189 184 185 184 182 185 189 192 191 190 199 212 208 204 223 230 227 249 278 291 302 312 322 328 332 336 338 337 335
157 110 92 106 115 106 97 96 96 83 62 35 30 38 39 14 4 21 55 49 15 286 282 77 64 320 350 91 165 241 329 28 86 126 121 333 308 98 94 292 306 59 252 254 259 67 76 275 275 263 245 241 230 191 171 175 193 194 184 185 186 185 184 185 185 185 183 178 180 189 189 182 187 196 202 225 257 283 302 313 320 328 335 339 338 336 336
113 112 108 112 114 105 87 65 44 35 49 62 34 20 2 345 356 12 42 80 217 262 294 83 118 209 215 150 167 207 274 19 58 86 83 343 296 121 115 346 1 44 238 249 11 62 53 276 262 257 251 240 210 180 175 186 198 193 187 189 189 187 188 187 183 184 188 186 181 183 186 192 198 194 194 224 272 302 311 314 320 327 334 338 337 337 339
112 109 106 105 87 50 28 22 33 47 58 54 44 16 330 344 15 21 315 301 281 141 294 287 199 138 139 134 132 134 34 21 44 82 97 238 324 68 65 37 3 215 239 349 60 74 230 236 236 247 254 234 196 189 192 192 189 183 189 193 194 196 199 196 190 190 192 190 187 191 197 202 201 194 205 239 269 302 310 311 316 323 329 335 338 340 342
119 82 60 65 38 21 13 336 358 61 60 23 87 131 316 326 320 197 256 293 269 220 255 281 93 87 283 281 79 71 340 18 70 81 64 349 29 64 76 231 240 240 357 26 72 219 243 244 239 244 258 243 208 206 202 190 179 178 189 195 196 197 199 198 194 191 190 190 192 197 200 205 205 196 200 224 253 288 300 306 310 318 327 332 334 337 344
154 1 28 34 356 353 21 311 333 31 91 197 175 162 174 216 216 210 227 235 132 113 357 64 95 107 248 271 34 71 287 9 45 42 281 33 39 49 218 234 260 31 45 312 279 277 266 259 251 240 231 222 213 206 198 192 188 182 179 188 196 197 197 196 197 197 196 197 201 205 208 213 216 209 205 210 225 256 279 292 301 312 324 329 330 334 344
103 65 75 76 314 314 100 105 333 345 178 206 198 178 178 193 199 204 225 133 118 134 176 152 106 104 206 272 322 15 34 49 44 233 125 80 68 254 240 215 38 40 39 274 271 259 246 247 249 229 214 212 205 198 194 191 185 181 178 187 198 200 200 201 206 210 208 205 206 210 214 218 220 218 214 210 212 235 261 275 286 303 317 324 328 334 341
99 68 82 110 292 333 41 194 254 250 206 210 207 194 190 207 225 228 223 163 151 152 153 124 90 91 221 236 64 21 17 54 64 253 213 98 168 286 1 38 241 222 200 227 245 245 241 248 252 231 216 206 191 188 192 188 183 187 194 198 197 197 198 200 206 212 211 209 209 212 216 220 223 223 221 216 217 233 252 260 270 291 310 318 323 332 338
109 72 74 132 216 257 247 255 297 305 277 239 263 245 190 145 258 247 207 168 144 129 124 125 118 98 347 35 76 204 291 27 92 232 167 104 154 316 7 349 264 243 206 212 230 237 236 237 233 220 206 192 181 183 189 191 191 195 199 200 198 197 197 200 208 211 211 210 213 215 218 221 223 224 226 227 230 239 250 258 266 281 299 312 319 329 337
84 90 87 100 159 206 210 146 354 317 293 298 338 334 134 155 238 237 193 150 131 137 154 152 135 135 257 348 56 87 263 249 178 155 16 31 215 221 177 230 262 262 238 221 226 234 237 236 224 203 191 187 187 191 194 193 195 198 200 202 204 201 200 203 210 211 210 211 215 219 221 223 223 224 225 227 231 241 250 253 259 272 291 307 315 323 333
63 81 103 96 117 246 240 112 19 308 301 309 307 263 183 187 252 228 181 158 133 102 100 79 74 110 138 10 42 27 266 243 157 118 173 224 201 177 179 222 233 232 227 223 224 230 234 225 196 190 200 200 196 197 199 196 196 201 204 204 204 202 203 207 210 208 208 213 217 218 219 222 224 225 226 228 235 247 249 247 252 265 280 293 303 313 328
39 66 121 143 186 197 177 156 187 248 263 264 249 220 182 179 237 201 172 156 114 73 91 182 113 75 62 19 17 206 243 213 122 144 239 231 185 154 190 227 230 226 229 238 237 229 227 214 190 193 206 207 203 206 205 200 199 202 204 202 201 201 203 207 208 206 207 212 215 216 219 224 227 229 230 232 238 243 239 235 242 258 272 281 294 312 328
67 148 226 350 125 157 153 151 205 237 237 234 230 210 179 201 210 171 154 142 119 109 190 186 92 81 123 240 219 147 86 18 232 237 243 233 200 184 203 223 229 221 222 240 250 239 221 212 204 201 200 201 205 207 205 201 201 203 202 199 198 199 202 205 205 204 205 208 212 215 218 220 221 224 226 228 231 236 236 233 235 246 260 273 290 310 329